| time (UTC) | temp F | wind direction | speed knots | gust knots | rain 1hr in | rain 24hr in | rain mn in | humidity % | barometer mb |
| 20260504081523 | 50 | 88 | 0.0 | 0.0 | 0.00 | 0.00 | 0.00 | 74 | 1018.9 |
| 20260504050019 | 54 | 36 | 0.0 | 0.0 | 0.00 | 0.00 | 0.00 | 67 | 1019.8 |
| 20260504044516 | 55 | 37 | 0.0 | 0.0 | 0.00 | 0.00 | 0.00 | 66 | 1019.8 |
| 20260504043017 | 54 | 37 | 0.0 | 0.0 | 0.00 | 0.00 | 0.00 | 67 | 1019.9 |
| 20260504041545 | 55 | 37 | 0.0 | 0.0 | 0.00 | 0.00 | 0.00 | 66 | 1019.7 |
| 20260504040103 | 55 | 35 | 0.0 | 0.9 | 0.00 | 0.00 | 0.00 | 66 | 1019.6 |
| 20260504034542 | 56 | 28 | 0.0 | 0.0 | 0.00 | 0.00 | 0.00 | 65 | 1019.6 |
| 20260504033042 | 57 | 28 | 0.0 | 0.9 | 0.00 | 0.00 | 0.00 | 64 | 1019.6 |
| 20260504031542 | 57 | 13 | 0.0 | 0.9 | 0.00 | 0.00 | 0.00 | 63 | 1019.7 |
| 20260504030041 | 57 | 9 | 0.0 | 0.9 | 0.00 | 0.00 | 0.00 | 61 | 1019.8 |
| 20260504024511 | 57 | 58 | 0.0 | 0.9 | 0.00 | 0.00 | 0.00 | 61 | 1019.7 |
| 20260504023011 | 57 | 330 | 0.0 | 0.9 | 0.00 | 0.00 | 0.00 | 60 | 1019.6 |
| 20260504021507 | 58 | 330 | 0.0 | 0.0 | 0.00 | 0.00 | 0.00 | 59 | 1019.4 |
| 20260504020007 | 59 | 54 | 0.0 | 0.9 | 0.00 | 0.00 | 0.00 | 57 | 1019.2 |
| 20260504014519 | 61 | 54 | 0.0 | 0.9 | 0.00 | 0.00 | 0.00 | 55 | 1019.0 |
| 20260504013006 | 61 | 339 | 0.0 | 0.0 | 0.00 | 0.00 | 0.00 | 53 | 1018.9 |
| 20260504011503 | 63 | 339 | 0.0 | 0.0 | 0.00 | 0.00 | 0.00 | 50 | 1018.7 |
| 20260504010003 | 64 | 339 | 0.0 | 0.0 | 0.00 | 0.00 | 0.00 | 46 | 1018.4 |
| 20260504004503 | 66 | 339 | 0.0 | 0.0 | 0.00 | 0.00 | 0.00 | 40 | 1018.4 |
| 20260504003003 | 68 | 339 | 0.0 | 0.0 | 0.00 | 0.00 | 0.00 | 40 | 1018.2 |
| 20260504001608 | 71 | 338 | 0.0 | 0.0 | 0.00 | 0.00 | 0.00 | 35 | 1018.2 |
| 20260504000127 | 73 | 339 | 0.0 | 2.6 | 0.00 | 0.00 | 0.00 | 26 | 1018.1 |
| 20260503234558 | 74 | 340 | 1.7 | 4.3 | 0.00 | 0.00 | 0.00 | 24 | 1018.2 |
| 20260503233058 | 75 | 330 | 1.7 | 4.3 | 0.00 | 0.00 | 0.00 | 23 | 1018.2 |
| 20260503231557 | 75 | 283 | 0.9 | 4.3 | 0.00 | 0.00 | 0.00 | 24 | 1018.2 |
| 20260503230026 | 76 | 13 | 3.5 | 8.7 | 0.00 | 0.00 | 0.00 | 22 | 1018.1 |
| 20260503224526 | 76 | 334 | 1.7 | 6.1 | 0.00 | 0.00 | 0.00 | 21 | 1018.1 |
| 20260503223024 | 76 | 34 | 4.3 | 8.7 | 0.00 | 0.00 | 0.00 | 21 | 1018.0 |
| 20260503221523 | 76 | 81 | 4.3 | 7.8 | 0.00 | 0.00 | 0.00 | 20 | 1018.1 |
| 20260503220020 | 77 | 293 | 0.9 | 7.0 | 0.00 | 0.00 | 0.00 | 22 | 1018.2 |
| 20260503214519 | 77 | 64 | 0.9 | 7.0 | 0.00 | 0.00 | 0.00 | 20 | 1018.3 |
| 20260503213018 | 77 | 53 | 3.5 | 10.4 | 0.00 | 0.00 | 0.00 | 19 | 1018.5 |
| 20260503211514 | 77 | 8 | 6.1 | 10.4 | 0.00 | 0.00 | 0.00 | 18 | 1018.7 |
| 20260503210011 | 77 | 24 | 3.5 | 8.7 | 0.00 | 0.00 | 0.00 | 19 | 1018.8 |
| 20260503204511 | 77 | 342 | 2.6 | 7.8 | 0.00 | 0.00 | 0.00 | 21 | 1018.9 |
| 20260503203010 | 78 | 43 | 0.0 | 7.0 | 0.00 | 0.00 | 0.00 | 19 | 1019.0 |
| 20260503201504 | 76 | 337 | 3.5 | 8.7 | 0.00 | 0.00 | 0.00 | 20 | 1019.3 |
| 20260503200007 | 76 | 340 | 2.6 | 10.4 | 0.00 | 0.00 | 0.00 | 20 | 1019.4 |
| 20260503194501 | 76 | 352 | 1.7 | 9.6 | 0.00 | 0.00 | 0.00 | 20 | 1019.7 |
| 20260503193111 | 76 | 20 | 2.6 | 7.8 | 0.00 | 0.00 | 0.00 | 19 | 1020.0 |
| 20260503191605 | 75 | 30 | 3.5 | 11.3 | 0.00 | 0.00 | 0.00 | 19 | 1020.5 |
| 20260503190056 | 75 | 26 | 4.3 | 9.6 | 0.00 | 0.00 | 0.00 | 20 | 1020.7 |
| 20260503184554 | 75 | 355 | 4.3 | 11.3 | 0.00 | 0.00 | 0.00 | 19 | 1021.0 |
| 20260503183108 | 75 | 6 | 3.5 | 9.6 | 0.00 | 0.00 | 0.00 | 21 | 1021.1 |
| 20260503181617 | 74 | 3 | 0.9 | 7.8 | 0.00 | 0.00 | 0.00 | 24 | 1021.1 |
| 20260503180049 | 74 | 304 | 3.5 | 9.6 | 0.00 | 0.00 | 0.00 | 23 | 1021.0 |
| 20260503174548 | 74 | 334 | 2.6 | 11.3 | 0.00 | 0.00 | 0.00 | 21 | 1021.2 |
| 20260503173052 | 73 | 63 | 4.3 | 8.7 | 0.00 | 0.00 | 0.00 | 20 | 1021.4 |
| 20260503171543 | 73 | 69 | 4.3 | 10.4 | 0.00 | 0.00 | 0.00 | 21 | 1021.6 |